Regional Weather Roundup
Issued by NWS Cleveland, OH

Home | Current Version | Previous Version | Graphics & Text | Print | Product List | Glossary On
Versions: 1 2 3 4 5 6 7 8 9 10 11 12 13 14 15 16 17 18 19 20 21 22 23 24 25 26 27 28 29 30 31 32 33 34 35 36 37 38 39 40 41 42 43 44 45 46 47 48 49 50
000
ASUS41 KCLE 311600
RWRCLE
OHIO REGIONAL WEATHER ROUNDUP
NATIONAL WEATHER SERVICE WILMINGTON, OH
1100 AM EST SAT JAN 31 2015

NOTE: "FAIR" INDICATES FEW OR NO CLOUDS BELOW 12,000 FEET WITH NO
SIGNIFICANT WEATHER AND/OR OBSTRUCTIONS TO VISIBILITY.

OHZ001>008-015>018-024>027-034-035-043-044-311700-
   NORTHWEST OHIO

CITY           SKY/WX    TMP DP  RH WIND       PRES   REMARKS
DEFIANCE       SUNNY     28  19  69 SW10      30.29F WCI  19
FINDLAY        SUNNY     26  17  68 S14       30.30F WCI  14
TOLEDO EXPRESS SUNNY     27  17  66 SW10      30.28F WCI  17
TOLEDO EXEC    SUNNY     26  17  68 SW15      30.30F WCI  14
LIMA           SUNNY     27  17  66 SW13      30.31F WCI  16
$$

OHZ009>014-019>023-028>033-038-089-311700-
   NORTHEAST OHIO

CITY           SKY/WX    TMP DP  RH WIND       PRES   REMARKS
CLE-HOPKINS    PTSUNNY   21  12  68 SW10      30.35F WCI  10
CLE-LAKEFRONT  MOSUNNY   23  14  68 S10       30.33F WCI  12
CUY CO. ARPT   PTSUNNY   21  14  73 SW9       30.34R WCI  11
LORAIN-ELYRIA  PTSUNNY   22  14  71 SW10      30.32F WCI  11
ASHTABULA      CLOUDY    15   8  73 SW5       30.33R WCI   8
AKRON-CANTON   MOSUNNY   18  10  71 SW9       30.32S WCI   7
WOOSTER        NOT AVBL
MANSFIELD      SUNNY     22  14  71 SW15      30.29F WCI   9
YOUNGSTOWN     MOSUNNY   17   9  70 SW8       30.31S WCI   7
$$

OHZ042-051>053-060>062-070>072-077>081-311700-
  SOUTHWEST OHIO

CITY           SKY/WX    TMP DP  RH WIND       PRES   REMARKS
CINC-COVINGTON PTSUNNY   31  18  58 SW8       30.37S WCI  23
CINC-LUNKEN    MOSUNNY   30  20  66 S6        30.41F WCI  24
HAMILTON       MOSUNNY   31  21  66 W3        30.39F
DAYTON         NOT AVBL
WRIGHT-PAT AFB NOT AVBL
DAYTON GENERAL MOSUNNY   28  18  66 SW9       30.35S WCI  19
WILMINGTON     CLOUDY    28  18  66 SW13      30.36S WCI  17
$$

OHZ036-037-039>041-045>050-054>059-063>069-073>076-082>088-311700-
  CENTRAL AND SOUTHEAST OHIO

CITY           SKY/WX    TMP DP  RH WIND       PRES   REMARKS
COLUMBUS       MOSUNNY   24  15  68 S8        30.37F WCI  15
OSU AIRPORT    SUNNY     26  15  63 SW9       30.35S WCI  17
BOLTON FIELD   SUNNY     27  18  69 SW10      30.37S WCI  17
RICKENBACK AFB NOT AVBL
NEWARK         MOSUNNY   23  14  68 SW7       30.37S WCI  15
MARION         SUNNY     22  13  68 SW12      30.33F WCI  10
LANCASTER      MOSUNNY   25  17  72 SW7       30.39R WCI  17
ZANESVILLE     SUNNY     20  12  71 CALM      30.38R
NEW PHILLY     MOSUNNY   18  10  71 VRB5      30.38S WCI  11
$$



USA.gov is the U.S. government's official web portal to all federal, state and local government web resources and services.